Weather History for Port Angeles, WA

Change the Weather History Date:

Tuesday, October 22, 2013

  Actual Average Record
Temperature  
Mean Temperature 48 °F -  
Max Temperature 61 °F 55 °F 64 °F (1958)
Min Temperature 37 °F 41 °F 30 °F (1987)
Degree Days  
Heating Degree Days 16    
Moisture  
Dew Point 43 °F    
Average Humidity 89    
Maximum Humidity 100    
Minimum Humidity 62    
Precipitation  
Precipitation 0.00 in - - ()
Sea Level Pressure  
Sea Level Pressure 30.11 in    
Wind  
Wind Speed 3 mph (ESE)    
Max Wind Speed 7 mph    
Max Gust Speed -    
Visibility 7 miles    
Events Fog    
Averages and records for this station are not official NWS values.
T = Trace of Precipitation, MM = Missing Value Source: NWS Daily Summary

Daily Weather History Graph

Daily Weather History Graph

Search for Another Location

Airport:

Trip Planner

Search our weather history database for the weather conditions in past years. The results will help you decide how hot, cold, wet, or windy it might be!

Date:

Astronomy

Oct. 22, 2013 Rise Set
Actual Time 7:44 AM PDT 6:11 PM PDT
Civil Twilight 7:12 AM PDT 6:43 PM PDT
Nautical Twilight 6:36 AM PDT 7:19 PM PDT
Astronomical Twilight 6:00 AM PDT 7:55 PM PDT
Moon 8:44 PM PDT (10/22) 11:29 AM PDT (10/22)
Length of Visible Light 11h 30m
Length of Day
10h 27m
Waning Gibbous, 86% of the Moon is Illuminated
Oct 22
Waning Gibbous
Oct 26
Last Quarter
Nov 3
New
Nov 9
First Quarter
Nov 17
Full

Hourly Weather History & Observations

Time (PDT) Temp. Windchill Dew Point Humidity Pressure Visibility Wind Dir Wind Speed Gust Speed Precip Events Conditions
12:53 AM 39.0 °F - 37.9 °F 96% 30.15 in 6.0 mi Calm Calm - N/A   Clear
1:53 AM 39.0 °F - 37.9 °F 96% 30.15 in 10.0 mi Calm Calm - N/A   Clear
2:53 AM 39.9 °F 37.8 °F 39.9 °F 100% 30.14 in 10.0 mi South 3.5 mph - N/A   Clear
3:53 AM 41.0 °F - 39.0 °F 93% 30.14 in 10.0 mi Calm Calm - N/A   Clear
4:53 AM 39.9 °F 36.7 °F 39.0 °F 97% 30.14 in 10.0 mi SSE 4.6 mph - N/A   Clear
5:53 AM 39.9 °F - 39.0 °F 97% 30.13 in 10.0 mi Calm Calm - N/A   Clear
6:53 AM 41.0 °F - 39.0 °F 93% 30.13 in 8.0 mi Calm Calm - N/A   Clear
7:30 AM 39.9 °F 37.8 °F 39.0 °F 97% 30.12 in 2.0 mi East 3.5 mph - N/A   Clear
7:39 AM 37.9 °F 32.7 °F 37.0 °F 97% 30.12 in 7.0 mi SE 6.9 mph - N/A   Partly Cloudy
7:51 AM 37.4 °F - 37.4 °F 100% 30.12 in 1.8 mi Calm Calm - N/A   Partly Cloudy
7:53 AM 39.0 °F 36.8 °F 37.9 °F 96% 30.13 in 1.8 mi SE 3.5 mph - N/A   Partly Cloudy
7:59 AM 39.0 °F 36.8 °F 37.9 °F 96% 30.12 in 3.0 mi SSE 3.5 mph - N/A   Partly Cloudy
8:53 AM 43.0 °F - 42.1 °F 97% 30.13 in 4.0 mi Calm Calm - N/A   Clear
9:53 AM 46.9 °F - 45.0 °F 93% 30.13 in 10.0 mi ESE 4.6 mph - N/A   Clear
10:40 AM 46.9 °F - 45.0 °F 93% 30.13 in 5.0 mi East 5.8 mph - N/A   Scattered Clouds
10:48 AM 46.4 °F 43.5 °F 44.6 °F 93% 30.12 in 2.5 mi East 5.8 mph - N/A   Mostly Cloudy
10:53 AM 46.9 °F - 45.0 °F 93% 30.13 in 1.0 mi East 5.8 mph - N/A   Mostly Cloudy
11:00 AM 46.9 °F - 46.0 °F 97% 30.12 in 0.5 mi ESE 5.8 mph - N/A Fog Fog
11:11 AM 46.9 °F - 45.0 °F 93% 30.12 in 1.2 mi ESE 5.8 mph - N/A   Overcast
11:22 AM 48.0 °F - 46.0 °F 93% 30.12 in 3.0 mi SE 5.8 mph - N/A   Overcast
11:46 AM 52.0 °F - 46.9 °F 83% 30.11 in 10.0 mi ESE 4.6 mph - N/A   Scattered Clouds
11:53 AM 52.0 °F - 46.9 °F 83% 30.12 in 10.0 mi ESE 4.6 mph - N/A   Partly Cloudy
12:53 PM 57.9 °F - 48.0 °F 70% 30.11 in 10.0 mi Variable 3.5 mph - N/A   Clear
1:53 PM 60.1 °F - 48.0 °F 64% 30.09 in 10.0 mi Variable 4.6 mph - N/A   Clear
2:53 PM 60.1 °F - 46.9 °F 62% 30.09 in 10.0 mi East 5.8 mph - N/A   Clear
3:53 PM 60.1 °F - 46.9 °F 62% 30.08 in 10.0 mi East 6.9 mph - N/A   Clear
4:53 PM 60.1 °F - 46.9 °F 62% 30.07 in 10.0 mi SE 5.8 mph - N/A   Clear
5:53 PM 55.9 °F - 46.0 °F 69% 30.05 in 10.0 mi ESE 5.8 mph - N/A   Clear
6:53 PM 48.9 °F - 46.0 °F 90% 30.04 in 10.0 mi East 3.5 mph - N/A   Clear
7:53 PM 45.0 °F 42.6 °F 43.0 °F 93% 30.05 in 10.0 mi SE 4.6 mph - N/A   Clear
8:53 PM 46.9 °F - 44.1 °F 90% 30.05 in 10.0 mi Calm Calm - N/A   Clear
9:53 PM 44.1 °F 40.1 °F 42.1 °F 93% 30.06 in 10.0 mi SE 6.9 mph - N/A   Clear
10:53 PM 42.1 °F 38.4 °F 39.9 °F 92% 30.06 in 10.0 mi SE 5.8 mph - N/A   Clear
11:53 PM 42.1 °F 40.2 °F 39.0 °F 89% 30.06 in 10.0 mi SSE 3.5 mph - N/A   Clear